EW8682 Weather Reports


Display with metric or nautical units.
time (UTC)temp
F
wind
direction
speed
MPH
gust
MPH
rain 1hr
in
rain 24hr
in
rain mn
in
humidity
%
barometer
mb
20260902094532 54 45 1.0 3.0 0.00 0.00 0.00 65 1007.8
20260902093037 54 46 1.0 2.0 0.00 0.00 0.00 64 1007.8
20260902091528 55 46 1.0 4.0 0.00 0.00 0.00 61 1007.7
20260902090027 55 167 1.0 2.0 0.00 0.00 0.00 60 1007.8
20260902084527 55 167 1.0 3.0 0.00 0.00 0.00 58 1007.7
20260902083033 55 168 2.0 4.0 0.00 0.00 0.00 56 1007.8
20260902081526 55 171 0.0 3.0 0.00 0.00 0.00 55 1007.8
20260902080025 56 171 0.0 3.0 0.00 0.00 0.00 53 1007.7
20260902074516 56 171 2.0 4.0 0.00 0.00 0.00 52 1007.7
20260902073024 57 171 1.0 3.0 0.00 0.00 0.00 49 1007.5
20260902071516 57 171 1.0 2.0 0.00 0.00 0.00 48 1007.5
20260902070009 58 171 1.0 3.0 0.00 0.00 0.00 47 1007.3
20260902064507 58 171 1.0 3.0 0.00 0.00 0.00 47 1007.1
20260902063013 59 172 1.0 3.0 0.00 0.00 0.00 47 1007.0
20260902061506 59 172 1.0 2.0 0.00 0.00 0.00 49 1007.1
20260902060007 59 172 1.0 3.0 0.00 0.00 0.00 50 1007.0
20260902054515 60 172 1.0 3.0 0.00 0.00 0.00 51 1007.1
20260902053005 61 173 1.0 2.0 0.00 0.00 0.00 50 1007.2
20260902051507 61 174 1.0 2.0 0.00 0.00 0.00 50 1007.1
20260902050006 62 174 0.0 2.0 0.00 0.00 0.00 50 1007.0
20260902044503 62 174 1.0 2.0 0.00 0.00 0.00 49 1006.9
20260902043002 63 174 1.0 3.0 0.00 0.00 0.00 48 1006.7
20260902041501 64 175 1.0 3.0 0.00 0.00 0.00 48 1006.6
20260902040001 65 175 1.0 3.0 0.00 0.00 0.00 45 1006.4
20260902034600 65 178 1.0 3.0 0.00 0.00 0.00 44 1006.2
20260902033106 66 178 1.0 3.0 0.00 0.00 0.00 41 1006.1
20260902031559 68 180 1.0 2.0 0.00 0.00 0.00 39 1006.1
20260902030058 70 180 1.0 2.0 0.00 0.00 0.00 36 1006.0
20260902024601 72 180 1.0 2.0 0.00 0.00 0.00 32 1005.8
20260902023057 75 180 0.0 3.0 0.00 0.00 0.00 30 1005.6
20260902021557 76 180 2.0 3.0 0.00 0.00 0.00 27 1005.6
20260902020059 77 185 0.0 4.0 0.00 0.00 0.00 26 1005.7
20260902014557 78 174 2.0 5.0 0.00 0.00 0.00 24 1005.6
20260902013055 79 162 3.0 7.0 0.00 0.00 0.00 23 1005.5
20260902011554 80 175 3.0 5.0 0.00 0.00 0.00 24 1005.6
20260902010053 80 174 3.0 7.0 0.00 0.00 0.00 23 1005.7
20260902004553 82 174 1.0 6.0 0.00 0.00 0.00 23 1005.7
20260902003057 82 171 3.0 7.0 0.00 0.00 0.00 24 1005.7
20260902001552 83 171 4.0 9.0 0.00 0.00 0.00 20 1005.7
20260902000112 82 161 5.0 9.0 0.00 0.00 0.00 20 1005.6
20260901234550 82 177 2.0 9.0 0.00 0.00 0.00 22 1005.8
20260901233049 83 176 5.0 9.0 0.00 0.00 0.00 21 1005.7
20260901231551 83 165 4.0 7.0 0.00 0.00 0.00 21 1005.7
20260901230050 84 179 4.0 8.0 0.00 0.00 0.00 17 1005.8
20260901224542 85 166 4.0 9.0 0.00 0.00 0.00 18 1005.9
20260901223042 84 202 4.0 13.0 0.00 0.00 0.00 18 1005.8
20260901221539 85 227 3.0 11.0 0.00 0.00 0.00 19 1005.9
20260901214536 84 196 3.0 9.0 0.00 0.00 0.00 22 1006.1
20260901213100 84 200 3.0 10.0 0.00 0.00 0.00 29 1006.2
20260901211533 85 204 4.0 9.0 0.00 0.00 0.00 31 1006.3
20260901210032 84 166 4.0 10.0 0.00 0.00 0.00 28 1006.4
20260901204537 83 171 4.0 10.0 0.00 0.00 0.00 31 1006.5
20260901203048 84 184 2.0 8.0 0.00 0.00 0.00 31 1006.6
20260901201525 84 171 3.0 12.0 0.00 0.00 0.00 32 1006.9
20260901200031 83 184 4.0 11.0 0.00 0.00 0.00 35 1007.0
20260901194520 83 174 5.0 10.0 0.00 0.00 0.00 33 1007.0
20260901193017 81 153 4.0 11.0 0.00 0.00 0.00 37 1007.2
20260901191515 80 168 5.0 9.0 0.00 0.00 0.00 47 1007.3
20260901190009 79 176 4.0 10.0 0.00 0.00 0.00 51 1007.3
20260901184507 78 254 3.0 6.0 0.00 0.00 0.00 53 1007.4
20260901183103 76 198 3.0 5.0 0.00 0.00 0.00 55 1007.6
20260901181557 75 185 2.0 6.0 0.00 0.00 0.00 57 1007.6
20260901180053 74 175 2.0 6.0 0.00 0.00 0.00 59 1007.6
20260901174548 73 278 3.0 7.0 0.00 0.00 0.00 62 1007.7
20260901173054 71 203 2.0 5.0 0.00 0.00 0.00 64 1007.6
20260901171541 70 219 1.0 5.0 0.00 0.00 0.00 66 1007.5
20260901170038 69 250 2.0 5.0 0.00 0.00 0.00 69 1007.5
20260901164536 68 201 2.0 4.0 0.00 0.00 0.00 68 1007.3
20260901163033 68 199 1.0 4.0 0.00 0.00 0.00 69 1007.4
20260901161535 67 189 2.0 4.0 0.00 0.00 0.00 70 1007.5
20260901160031 66 185 1.0 3.0 0.00 0.00 0.00 70 1007.5
20260901154527 66 195 2.0 5.0 0.00 0.00 0.00 71 1007.5
20260901153030 64 173 2.0 5.0 0.00 0.00 0.00 59 1007.4
20260901151518 62 104 1.0 2.0 0.00 0.00 0.00 63 1007.2
20260901150013 60 60 0.0 2.0 0.00 0.00 0.00 61 1007.1
20260901144511 58 60 1.0 2.0 0.00 0.00 0.00 65 1006.8
20260901143010 56 60 0.0 2.0 0.00 0.00 0.00 71 1006.6
20260901141507 55 60 2.0 3.0 0.00 0.00 0.00 69 1006.5
20260901140006 54 61 0.0 2.0 0.00 0.00 0.00 74 1006.3
20260901134505 54 61 0.0 2.0 0.00 0.00 0.00 79 1006.2
20260901133005 54 61 1.0 2.0 0.00 0.00 0.00 77 1006.1
20260901131504 54 61 1.0 2.0 0.00 0.00 0.00 80 1006.2
20260901130002 54 61 0.0 2.0 0.00 0.00 0.00 80 1006.2
20260901124502 54 61 0.0 2.0 0.00 0.00 0.00 80 1006.1
20260901123100 55 61 0.0 3.0 0.00 0.00 0.00 79 1006.1
20260901121559 55 61 1.0 2.0 0.00 0.00 0.00 81 1006.0
20260901120058 55 61 0.0 1.0 0.00 0.00 0.00 80 1006.0
20260901114557 55 61 0.0 2.0 0.00 0.00 0.00 80 1005.8
20260901113057 56 61 1.0 3.0 0.00 0.00 0.00 80 1005.9
20260901111554 55 63 1.0 3.0 0.00 0.00 0.00 80 1005.9
20260901110058 56 63 0.0 3.0 0.00 0.00 0.00 80 1005.9
20260901104555 56 63 1.0 3.0 0.00 0.00 0.00 78 1005.9
20260901103051 56 63 1.0 3.0 0.00 0.00 0.00 78 1006.0
20260901101550 56 63 1.0 2.0 0.00 0.00 0.00 76 1006.2
20260901100048 56 63 1.0 3.0 0.00 0.00 0.00 75 1006.3